This demonstration page uses our WeatherBlox Daily Observations layout. Learn more.

41.55636, -103.73856

Hourly Observations for May 11, 2018

Temp ( °F °C ) Dew Point ( °F °C ) Humidity (%) Winds ( mph kmh ) Pressure ( in mb ) Visibility ( mi km ) Precip ( " mm )
12:58 am 00:58 Mostly Cloudy with Fog 45 7.1 44 6.6 97 97 N 21 33 29.77 1008 0.5 0.80467 N/A
1:58 am 01:58 Mostly Cloudy with Mist and Fog 45 7.4 44 6.9 97 97 N 15 24 29.79 1009 0.75 1.207005 N/A
2:58 am 02:58 Mostly Cloudy with Mist and Fog 44 6.7 43 6.2 97 97 N 14 22 29.76 1008 5 8.0467 N/A
3:58 am 03:58 Mostly Cloudy with Light Showers 44 6.4 43 5.9 97 97 NNW 15 24 29.78 1009 3 4.82802 N/A
4:58 am 04:58 Mostly Cloudy with Fog 45 7.2 44 6.7 97 97 NNE 12 19 29.72 1007 0.5 0.80467 N/A
5:58 am 05:58 Mostly Cloudy with Fog 45 7 44 6.6 97 97 NE 6 9 29.74 1007 1 1.60934 N/A
6:58 am 06:58 Mostly Cloudy with Fog 45 7.2 44 6.7 97 97 E 7 11 29.75 1008 1 1.60934 N/A
7:58 am 07:58 Mostly Cloudy with Fog 45 7.3 44 6.8 97 97 SSE 3 6 29.77 1008 0.25 0.402335 N/A
8:58 am 08:58 Mostly Cloudy with Light Rain 46 7.7 45 7.3 97 97 S 5 7 29.78 1009 0.25 0.402335 N/A
9:58 am 09:58 Cloudy with Mist and Fog 47 8.2 46 7.8 97 97 S 6 9 29.8 1009 1.25 2.011675 N/A
10:58 am 10:58 Cloudy with Mist and Fog 48 8.9 47 8.6 98 98 S 6 9 29.81 1009 6 9.65604 N/A
11:58 am 11:58 Cloudy 51 10.5 50 9.9 96 96 S 6 9 29.8 1009 10 16.0934 N/A
12:58 pm 12:58 Cloudy 55 12.5 49 9.6 83 83 SE 10 17 29.76 1008 10 16.0934 N/A
1:58 pm 13:58 Partly Cloudy 57 13.7 50 10.2 80 80 ESE 7 11 29.75 1008 10 16.0934 N/A
2:58 pm 14:58 Mostly Sunny 58 14.4 50 10 75 75 ESE 12 19 29.75 1008 10 16.0934 N/A
3:58 pm 15:58 Mostly Sunny 62 16.4 51 10.4 68 68 ESE 9 15 29.73 1007 10 16.0934 N/A
4:58 pm 16:58 Mostly Cloudy 63 17.2 51 10.5 65 65 ENE 13 20 29.73 1007 10 16.0934 N/A
5:58 pm 17:58 Cloudy 55 12.6 50 10 84 84 ENE 18 30 29.79 1009 10 16.0934 N/A
6:58 pm 18:58 Cloudy 52 11.1 49 9.4 89 89 E 22 35 29.79 1009 10 16.0934 N/A
7:58 pm 19:58 Cloudy with Mist and Fog 50 10.2 49 9.4 95 95 E 15 24 29.81 1009 2.75 4.425685 N/A
8:58 pm 20:58 Cloudy with Light Rain 49 9.7 48 9.1 96 96 E 13 20 29.85 1011 2 3.21868 N/A
9:58 pm 21:58 Mostly Cloudy with Light Showers 49 9.6 48 9.1 97 97 E 12 19 29.88 1012 3 4.82802 0.02 0.508
10:58 pm 22:58 Mostly Cloudy with Light Showers 48 9.1 47 8.6 97 97 E 15 24 29.87 1012 5 8.0467 0.02 0.508
11:58 pm 23:58 Cloudy with Light Showers 48 8.7 47 8.2 97 97 ENE 12 19 29.9 1012 6 9.65604 0.01 0.254

Powered by AerisWeather